Theta_e
328 329 333 337 338 334 334 337 341 342 342 346 351 345 338 336 330 328 338 344 346 348 348 348 348 347 348 349 349 349 350 349 348 347 346 347 348 347 346 346 347 348 349 349 349 349 350 350 350 350 350 350 350 350 350 349 349 348 348 348 348 348 347 345 343 342 342 344 345 345 345 345 345 346 346 347 348 348 349 350 350 350 349 349 350 350 349
326 328 333 336 337 335 333 334 337 341 343 342 344 344 344 342 340 340 342 346 351 350 347 347 347 345 348 349 349 350 350 349 348 347 346 346 346 346 346 345 346 347 347 349 349 349 349 349 350 350 350 350 350 350 350 350 350 349 347 347 348 348 347 346 345 343 342 343 344 344 345 345 345 345 346 348 349 349 350 350 351 351 351 350 350 351 350
331 331 332 333 336 336 335 332 333 340 343 342 343 344 343 345 345 344 344 349 353 349 346 347 346 346 348 349 349 351 349 349 348 347 347 346 345 345 345 344 346 346 346 347 347 347 348 348 349 349 349 350 350 350 350 349 348 348 348 347 347 347 347 346 346 345 343 343 344 344 344 344 345 345 346 348 350 351 352 352 351 352 352 351 351 351 352
333 335 331 333 339 337 338 336 333 338 344 343 343 343 343 345 346 344 347 351 351 348 346 348 347 347 348 348 349 350 349 350 349 347 347 348 346 346 346 345 346 346 346 346 345 345 346 347 348 348 348 349 349 349 350 349 347 348 347 346 346 347 347 346 346 346 344 344 344 343 343 344 346 346 347 348 350 351 352 352 353 352 352 351 351 351 352
333 336 333 339 342 333 337 339 332 336 344 342 340 343 342 342 344 346 350 350 347 347 347 348 348 347 347 348 348 349 349 350 350 348 348 348 348 348 347 347 346 346 346 346 345 345 345 345 346 346 347 348 347 347 348 348 347 347 347 347 346 348 348 345 344 346 347 345 344 343 344 346 348 350 350 351 351 352 352 352 353 353 352 352 351 350 351
329 335 335 335 333 329 335 340 334 336 342 341 342 343 340 341 344 346 348 348 346 347 347 347 348 346 345 346 347 348 349 349 350 349 347 347 348 348 348 348 348 347 347 347 346 346 345 345 345 344 345 346 347 347 347 348 348 348 349 349 348 348 349 346 343 345 347 347 347 348 347 348 350 351 352 352 352 352 352 352 352 351 351 351 351 349 349
329 337 337 328 328 334 338 337 334 335 339 339 341 341 338 340 342 344 347 348 346 346 346 345 345 344 345 347 347 348 348 348 348 347 345 346 347 347 348 348 348 348 348 348 347 347 346 345 345 344 344 345 347 348 347 347 348 349 350 350 350 349 349 348 345 343 344 346 349 351 351 350 351 352 352 352 352 352 351 351 350 349 349 349 349 349 348
325 332 332 326 330 338 338 335 333 334 337 338 340 342 340 339 340 343 347 346 344 343 343 343 344 345 345 345 344 345 345 346 347 347 346 345 345 346 347 348 348 348 348 348 348 347 346 346 345 345 344 344 346 347 346 345 345 348 349 349 349 350 351 351 349 347 345 346 349 352 353 352 351 351 350 350 350 351 350 349 349 348 347 346 347 348 347
327 334 333 332 335 335 335 335 331 330 333 333 336 343 344 339 337 341 344 344 342 341 341 343 343 342 343 342 341 340 341 342 344 345 346 346 345 345 347 347 346 346 347 348 349 348 347 346 345 345 344 343 344 345 345 345 346 347 349 350 350 351 352 352 350 349 348 348 348 351 352 352 351 350 350 349 348 347 348 348 348 348 347 347 346 346 346
333 343 340 337 339 338 338 336 330 328 331 330 330 339 345 340 335 338 341 342 341 340 341 342 340 341 348 348 341 338 339 339 339 341 342 343 345 345 345 346 346 345 346 347 348 348 349 347 346 345 345 345 346 347 347 348 347 348 349 350 350 349 349 348 348 348 349 347 346 348 350 351 351 350 350 349 346 345 346 347 348 347 347 347 346 345 345
334 344 342 339 340 339 340 338 332 330 332 331 329 336 345 341 335 336 339 340 340 340 341 339 338 345 355 352 341 337 339 338 338 339 339 340 342 344 344 346 346 346 345 345 346 348 349 348 347 346 347 348 347 346 345 345 346 348 349 349 348 347 346 346 347 348 348 347 346 346 348 351 352 351 351 349 347 346 347 347 348 347 346 345 345 345 345
339 343 339 335 336 335 335 336 334 331 331 331 333 338 342 339 334 335 338 338 339 340 339 338 339 343 348 346 340 338 337 337 337 339 339 339 339 341 343 345 346 347 346 345 346 347 347 348 348 348 348 348 346 343 342 343 345 347 347 346 345 345 346 345 345 346 346 346 345 344 346 349 351 351 350 349 348 347 347 348 348 347 345 345 345 344 345
342 343 338 332 333 335 333 333 334 331 329 331 338 341 339 336 334 335 337 338 339 339 337 338 339 339 339 339 339 338 337 337 338 338 339 340 339 340 342 343 345 346 345 344 345 346 346 347 348 348 347 346 345 344 344 346 346 345 345 344 343 345 346 345 346 346 346 346 346 345 347 349 350 350 350 350 350 349 348 349 349 348 347 346 346 346 346
334 341 341 333 329 331 332 332 333 329 328 334 340 339 336 336 336 335 335 337 338 338 337 337 338 338 338 337 337 337 337 337 338 339 339 340 340 340 341 342 343 344 344 344 344 344 344 345 345 346 347 347 346 347 346 345 345 345 344 345 345 347 347 347 347 348 348 348 348 348 349 349 349 349 350 350 350 350 349 349 349 349 348 348 348 347 348
331 337 337 330 328 330 331 333 332 330 331 336 338 336 336 337 337 335 335 336 336 336 337 337 338 338 337 335 335 335 336 336 336 336 337 338 338 338 339 340 341 342 342 343 343 342 342 342 342 344 345 346 347 347 346 346 346 346 347 347 348 349 349 349 349 349 350 350 349 349 349 348 348 348 349 349 350 350 350 350 350 349 349 349 349 348 348
335 340 337 333 332 332 332 333 333 333 334 335 336 337 337 336 335 334 334 335 335 335 336 338 339 336 334 333 333 334 334 333 332 332 332 332 332 333 335 338 339 340 341 341 341 341 340 341 342 342 343 344 345 346 345 345 345 346 347 348 349 349 349 349 349 349 349 348 347 346 345 345 346 346 346 347 348 348 349 349 349 348 348 348 348 347 347
331 336 336 333 331 332 334 335 334 335 336 336 337 338 336 335 335 334 334 334 334 335 337 339 337 334 333 333 332 332 331 330 328 328 327 327 326 328 332 337 338 338 339 340 339 340 339 340 341 341 342 343 343 343 342 342 343 345 346 346 347 347 347 346 346 346 345 344 344 343 342 342 344 345 345 344 344 344 344 345 344 344 344 343 344 344 344
329 330 330 330 332 334 336 336 336 336 336 336 337 337 336 336 336 335 335 335 335 336 338 339 336 333 333 332 331 331 330 328 327 326 326 325 324 323 327 334 336 336 337 338 338 338 338 338 339 340 341 341 341 341 340 339 340 342 343 343 344 344 344 343 343 343 343 342 342 342 341 341 342 343 343 342 342 342 341 341 341 341 341 340 339 338 336
334 336 331 329 332 335 335 335 336 335 335 335 335 336 336 336 336 336 336 335 335 337 338 337 335 333 332 331 330 329 328 327 326 326 326 326 323 319 319 323 327 330 332 333 334 334 335 336 337 337 338 338 338 337 338 338 338 340 341 342 342 342 342 341 340 339 339 339 339 339 339 340 340 340 340 339 338 337 337 336 336 335 334 333 331 329 326
335 336 331 328 331 334 333 334 335 334 334 334 334 335 336 336 336 336 336 335 336 337 337 336 335 333 331 330 330 328 326 326 327 326 326 325 320 315 313 314 317 319 322 324 326 326 328 331 334 334 334 333 333 332 332 333 334 336 338 339 339 338 337 336 335 334 333 333 333 333 333 333 334 334 333 332 331 331 331 330 330 329 328 327 327 326 326
333 331 329 328 331 333 333 333 335 334 334 335 336 336 336 336 336 335 335 335 336 335 335 336 335 333 332 330 329 326 325 326 326 327 326 321 315 311 310 310 311 312 313 315 317 317 319 323 328 331 331 330 329 329 329 328 329 330 331 332 332 332 331 330 329 328 328 327 326 326 327 327 327 328 327 327 328 328 329 329 329 329 329 328 327 328 328
339 335 332 330 332 335 334 332 334 334 334 335 336 336 336 335 335 335 335 335 334 334 334 334 333 332 331 328 327 326 325 326 327 327 324 317 312 312 312 310 309 309 309 309 310 311 312 314 319 324 327 327 327 327 327 327 327 327 327 327 327 327 327 327 327 327 328 327 326 325 326 326 325 326 326 327 327 327 328 329 329 329 329 328 327 327 328
339 333 331 329 330 334 333 332 333 333 333 335 336 336 335 334 333 334 334 334 333 333 333 332 331 329 327 325 325 325 326 327 327 324 320 315 313 313 313 312 311 310 309 309 308 309 309 310 311 314 317 319 320 320 321 322 322 322 324 325 324 322 321 322 322 323 326 329 330 329 328 328 326 324 324 326 326 326 327 327 328 328 328 327 327 327 326
329 328 330 329 329 331 332 332 333 333 333 334 335 335 335 334 332 332 332 332 332 332 331 329 328 327 326 326 327 327 326 327 326 323 318 315 315 315 314 314 313 312 311 311 310 310 310 310 310 311 312 313 313 313 314 315 314 314 318 320 319 317 318 319 319 318 319 323 326 326 326 327 327 324 323 325 327 327 327 328 328 328 327 327 327 327 325
327 328 329 329 329 331 332 332 332 333 333 333 334 335 335 334 332 331 330 330 330 330 329 327 326 326 327 327 328 327 326 326 325 323 319 317 317 317 317 316 315 314 314 313 312 311 311 310 310 311 311 311 310 309 310 310 309 309 311 313 314 316 319 320 320 318 316 317 320 320 321 322 322 321 322 325 327 327 327 327 327 326 326 325 324 322 320
327 328 328 330 331 332 332 332 332 332 333 332 333 335 334 333 332 330 329 329 329 328 328 328 327 327 327 327 327 327 326 326 325 323 320 319 319 319 319 319 316 316 316 315 314 314 313 312 311 311 311 310 310 309 308 308 308 308 308 309 311 314 316 316 318 319 319 319 320 321 322 322 322 321 322 323 324 324 323 322 321 321 320 319 318 317 315
327 327 328 330 332 331 332 332 332 332 332 332 333 334 334 332 331 330 329 329 329 328 328 328 328 329 328 327 327 326 326 326 325 323 323 324 323 323 324 323 320 319 320 320 318 316 315 314 313 313 313 312 312 310 310 310 309 309 310 311 314 315 314 313 315 318 320 320 319 321 322 322 322 322 321 321 321 319 317 316 317 318 317 316 316 315 315
327 327 326 327 329 330 330 331 331 332 332 332 332 332 333 332 332 331 330 330 330 330 330 330 331 331 330 328 327 326 326 326 325 325 326 327 327 327 327 326 325 324 325 325 324 323 321 320 317 315 314 314 314 313 312 311 312 312 313 315 317 319 319 318 319 320 321 321 320 320 321 322 322 322 321 321 320 319 316 316 317 319 318 317 317 316 316
328 327 326 325 326 328 329 331 333 332 332 332 332 332 332 332 332 331 331 331 331 331 331 331 331 331 331 330 328 327 326 326 326 327 327 328 328 329 329 328 328 327 327 327 327 327 326 326 324 321 319 317 315 314 314 313 313 313 313 314 314 316 318 320 321 321 322 322 322 321 322 322 323 321 320 319 320 320 318 318 319 319 319 318 318 318 318
328 327 326 326 327 327 329 330 332 332 332 332 332 331 331 331 331 331 330 330 330 330 330 330 330 330 330 331 330 329 328 328 328 329 329 329 330 330 330 330 330 329 329 329 329 328 328 328 327 326 324 322 319 317 316 315 314 314 314 313 312 312 313 315 316 317 318 318 318 318 319 319 320 319 316 315 316 318 319 320 320 321 320 320 320 319 320
327 327 327 327 328 328 328 329 331 331 331 331 331 330 330 330 329 329 329 328 329 329 328 329 329 329 328 329 329 329 329 329 329 329 329 329 330 330 330 330 330 330 330 330 330 330 329 328 328 328 327 326 325 324 322 320 317 317 317 316 315 314 313 313 313 313 313 312 312 312 314 314 315 314 313 311 312 315 317 319 320 320 320 320 320 320 320
327 327 327 328 329 328 328 329 330 330 329 330 329 329 328 327 327 327 327 327 327 327 327 327 327 326 326 326 326 326 327 327 327 328 327 327 328 328 328 328 328 328 329 329 329 330 329 329 329 329 328 328 327 327 326 325 323 322 321 321 320 318 316 314 313 312 312 312 311 311 313 314 315 314 312 310 310 312 314 317 318 318 319 319 319 320 320
327 327 327 328 329 328 328 329 329 328 328 328 328 327 327 326 325 325 325 325 325 324 324 324 323 323 322 321 322 322 322 322 323 324 324 324 324 324 324 325 325 325 326 326 326 327 328 328 328 328 328 328 328 327 327 327 326 326 325 324 324 323 321 319 317 314 313 313 313 313 313 313 314 314 312 310 309 309 311 313 316 317 318 319 319 320 320
326 325 326 326 326 326 327 328 328 328 327 326 325 325 324 324 323 323 322 322 322 322 322 322 321 321 321 320 320 320 320 320 320 320 320 320 320 320 320 321 321 321 322 322 323 324 324 325 326 326 326 327 327 328 328 327 327 326 326 326 325 325 324 324 322 319 316 314 314 316 316 314 313 313 312 310 309 308 307 308 311 313 315 317 317 318 318
325 325 325 325 324 324 324 326 327 327 326 325 324 323 322 322 322 322 322 321 320 319 318 317 316 316 316 315 315 315 315 315 316 316 317 317 317 317 318 317 317 317 318 318 319 319 320 321 321 322 322 323 324 325 326 327 327 327 326 326 326 325 325 325 325 323 321 318 316 316 317 317 316 316 314 313 311 309 308 307 308 309 311 313 314 315 316
326 326 325 325 325 325 325 325 326 326 325 324 323 322 322 322 321 320 318 315 313 311 309 309 308 308 308 308 308 308 308 309 310 311 312 312 313 313 314 314 315 315 315 315 315 316 316 316 316 317 316 317 317 319 320 322 323 324 324 325 325 325 325 325 325 324 324 322 319 316 316 317 318 318 318 316 314 312 311 310 310 311 312 314 315 315 316
326 326 326 326 325 325 325 325 325 325 325 324 323 323 322 321 318 314 311 309 308 307 307 306 306 305 305 306 307 308 308 308 308 308 308 308 307 308 308 308 309 309 310 310 311 311 312 312 312 312 312 312 312 314 315 317 318 319 320 321 322 322 323 324 324 324 324 323 322 319 317 316 316 316 317 317 317 316 314 313 312 312 313 314 315 315 315
327 326 326 326 325 325 325 324 324 324 324 323 322 321 320 317 313 310 308 308 308 307 306 305 305 304 304 305 306 306 307 307 307 306 306 306 305 305 305 305 305 306 306 307 307 308 309 309 310 310 311 311 310 311 312 313 314 314 315 316 317 318 319 320 321 322 322 322 322 321 321 320 319 318 316 316 316 316 315 314 313 312 312 313 313 314 314
327 326 326 326 325 324 324 323 323 322 323 322 321 318 315 311 309 309 309 308 308 307 306 305 304 304 304 305 305 306 306 306 306 306 306 306 306 306 306 306 306 307 307 307 307 308 309 310 310 311 311 311 311 311 311 311 311 311 311 312 312 312 313 313 314 315 316 317 319 320 321 322 321 320 318 316 316 316 316 314 312 311 311 311 312 313 313
326 326 326 325 325 324 323 322 321 320 320 319 319 316 312 310 309 309 309 308 307 307 306 305 304 303 304 305 306 306 307 307 307 307 307 307 307 307 306 307 308 308 309 308 308 309 310 310 311 311 311 311 312 312 312 312 311 311 311 311 311 311 311 311 310 310 310 311 312 313 315 317 319 319 319 318 318 317 317 316 315 313 312 310 311 312 313
326 325 325 325 325 324 322 321 320 318 316 316 315 313 311 310 309 309 309 308 308 307 306 305 304 304 305 306 306 307 307 307 308 308 308 308 308 307 307 307 308 308 309 309 309 309 309 310 310 310 310 310 310 311 311 311 312 312 312 312 312 312 312 312 312 311 311 311 311 311 312 313 315 317 318 319 319 319 318 318 317 316 314 311 311 313 314
325 326 326 325 324 323 321 320 318 316 314 313 312 311 310 310 310 310 310 310 309 308 306 305 304 305 306 307 307 307 307 308 308 308 308 308 308 309 309 309 309 309 309 309 309 309 309 309 309 309 309 309 309 309 309 309 310 310 310 311 311 311 312 312 312 312 313 313 313 313 313 312 312 314 315 317 318 319 319 319 318 316 314 312 312 313 314
326 326 325 324 323 321 319 318 316 315 313 312 311 311 311 311 311 311 310 309 308 306 306 306 306 307 308 308 308 308 308 308 308 308 309 309 309 309 310 309 310 310 310 310 310 309 309 309 309 309 309 309 308 308 308 308 308 308 308 308 309 309 309 310 310 310 311 311 312 312 312 312 312 312 313 314 315 316 318 318 318 317 316 314 313 314 314
326 325 324 323 321 319 317 316 315 314 313 313 312 312 312 311 311 310 308 307 306 306 306 307 308 308 308 309 309 308 309 309 309 309 309 309 310 310 310 310 310 310 310 310 310 310 310 310 310 310 309 309 309 308 308 307 307 307 306 306 306 306 307 307 308 308 308 309 309 310 310 311 311 311 312 312 312 313 314 315 316 317 316 314 314 314 314
324 323 322 321 319 317 316 316 315 314 314 313 312 312 311 310 309 308 306 306 306 306 306 307 308 308 309 309 309 309 309 309 309 309 309 309 309 309 309 309 309 309 309 309 309 310 310 310 309 309 309 309 308 308 307 307 306 306 305 305 305 305 305 305 305 306 306 307 307 307 308 308 309 310 310 310 311 311 311 312 314 316 315 314 314 314 314
322 321 319 319 318 317 316 315 313 312 312 311 311 312 311 309 308 307 306 307 307 308 308 308 308 309 309 309 309 309 309 308 308 308 308 308 308 308 307 308 308 308 308 308 308 308 309 309 309 308 308 308 307 307 306 306 305 305 305 305 305 305 305 305 305 305 305 305 305 306 306 307 307 308 308 309 309 309 309 310 313 314 314 314 314 314 313
320 319 317 317 317 316 314 312 310 310 310 311 311 311 309 308 307 307 308 308 308 308 308 308 308 308 308 308 308 308 308 307 307 307 306 306 306 306 306 306 306 306 307 307 307 307 307 307 307 307 307 307 306 306 306 306 305 305 306 306 306 306 306 306 306 306 305 305 305 305 305 305 306 307 307 308 309 309 310 310 312 313 314 315 314 313 312
320 318 318 317 316 314 312 310 310 310 311 311 310 309 307 306 307 308 308 308 307 307 307 307 307 307 306 306 306 305 305 304 304 304 304 304 304 304 304 305 305 306 306 306 307 307 307 307 307 307 307 307 306 307 306 306 306 306 306 307 307 307 307 307 306 306 306 306 305 305 306 306 306 307 308 309 309 310 311 311 312 312 313 314 313 312 311
320 319 318 317 315 313 311 311 311 311 311 310 308 306 305 306 307 308 308 307 306 307 306 306 305 305 304 304 304 303 302 302 302 302 302 303 303 304 304 305 305 306 306 306 307 307 307 307 307 307 307 307 306 307 306 307 307 307 307 307 307 307 307 307 307 307 307 307 307 307 307 307 308 308 309 310 311 311 311 311 311 311 312 312 311 310 308
319 319 318 317 315 314 313 312 312 312 311 309 308 306 305 305 307 307 307 306 306 306 305 304 303 303 303 303 302 302 302 302 302 302 302 302 303 304 305 305 305 306 306 306 306 306 306 306 306 306 306 306 306 306 306 306 306 306 306 306 306 306 307 307 307 307 307 308 308 308 308 308 309 309 309 310 310 310 309 309 309 309 309 309 308 308 307
319 319 318 318 316 314 313 313 313 311 310 309 307 306 305 305 306 306 305 305 305 305 303 303 303 302 302 302 302 302 302 302 302 301 301 302 303 303 304 304 305 305 305 305 305 305 305 305 305 305 305 305 305 306 306 306 306 305 305 306 306 306 306 306 306 306 307 307 308 308 308 308 308 308 308 308 308 308 307 307 307 307 307 307 307 306 306
320 319 318 317 316 314 314 313 312 310 309 308 307 306 305 305 306 305 305 305 305 304 303 303 302 302 302 303 303 303 303 303 302 302 301 302 302 302 302 303 304 304 304 304 304 304 304 305 305 304 304 304 304 305 305 305 305 305 305 305 305 305 305 305 305 305 305 306 306 307 307 307 306 306 306 306 306 306 306 306 305 305 305 305 305 304 304
Wind_Speed
4 2 2 4 3 3 5 7 8 8 10 10 7 2 4 2 3 4 6 3 4 4 5 3 2 2 3 4 5 6 10 13 15 17 19 20 20 20 22 25 28 31 34 34 34 33 34 35 36 36 35 33 32 30 29 27 25 24 22 21 21 23 25 25 24 23 23 22 21 21 21 20 20 19 19 18 18 17 16 16 15 14 14 14 14 13 13
4 3 3 3 3 1 5 8 8 7 8 9 7 4 5 3 3 2 1 6 7 4 3 3 4 5 7 8 8 6 8 12 14 15 17 19 20 21 23 25 25 25 27 29 31 29 28 30 33 33 32 33 33 31 29 28 26 25 23 21 20 21 23 25 25 24 24 23 22 21 21 21 20 20 19 19 19 18 17 16 15 14 14 14 14 13 13
3 5 2 2 3 2 4 8 8 6 6 7 8 7 6 4 2 3 4 7 6 4 5 7 8 9 10 10 9 7 6 9 13 14 14 16 18 20 23 26 26 24 23 24 28 28 27 27 29 29 30 32 31 30 29 28 27 25 24 22 21 21 22 24 26 26 25 24 23 23 22 21 21 20 20 20 20 19 17 16 15 14 14 14 13 13 13
2 5 6 5 3 3 5 8 9 8 6 5 6 7 7 5 4 5 5 5 2 3 6 10 10 11 11 10 9 8 6 6 9 12 13 12 14 16 19 23 26 26 26 26 28 30 28 26 26 27 29 30 29 28 29 29 27 25 25 25 23 21 22 24 26 27 26 25 25 24 23 22 21 21 20 20 20 20 18 17 16 15 14 14 13 14 14
4 4 5 5 4 5 4 4 3 4 3 3 3 6 8 7 4 2 2 2 1 1 5 7 7 7 8 8 8 6 5 5 5 7 9 9 11 15 18 20 22 24 25 25 27 29 30 30 29 27 27 28 29 28 28 28 27 26 26 25 23 22 22 23 25 26 26 27 26 25 25 24 22 21 20 20 20 20 19 18 17 16 16 15 14 14 14
4 4 4 3 3 2 3 4 3 1 4 5 5 4 6 7 5 3 3 3 4 4 5 5 5 7 8 10 10 7 5 5 5 4 2 5 10 13 15 16 18 20 21 22 23 25 28 31 31 28 27 27 28 29 28 28 28 28 28 26 24 23 22 22 23 25 27 28 28 27 26 25 23 22 21 20 19 19 19 19 18 17 17 16 16 15 15
3 1 2 1 3 4 5 3 1 3 7 8 7 4 4 6 6 5 6 6 5 6 6 7 10 11 12 12 11 9 7 5 6 7 5 1 6 9 11 14 18 19 20 21 22 23 25 26 27 28 29 29 28 28 28 27 27 27 26 25 25 25 24 23 22 23 25 28 30 30 28 27 25 23 22 21 20 20 20 20 20 19 18 17 17 17 16
1 1 2 3 5 5 2 2 3 3 4 4 4 4 3 3 3 2 5 6 5 5 5 7 12 15 15 15 13 11 9 8 7 6 5 3 1 3 6 11 17 19 19 20 21 23 24 24 25 26 28 29 29 29 29 27 26 25 24 24 26 27 26 25 24 23 25 28 31 31 30 29 27 25 24 23 22 22 21 21 20 19 19 19 18 18 18
1 2 1 1 2 2 1 2 2 2 1 1 2 1 3 4 3 2 3 6 5 4 3 5 9 10 11 12 13 12 11 10 8 6 5 5 4 2 2 6 11 15 17 19 20 22 24 25 27 28 28 30 30 30 29 28 25 24 24 25 27 26 25 25 25 25 26 27 29 30 31 30 28 24 23 22 22 22 22 22 21 20 20 20 19 19 19
2 4 2 2 2 2 3 3 2 1 3 5 3 2 3 5 5 4 2 6 6 4 3 4 4 1 3 4 5 9 9 7 6 5 3 3 4 3 1 2 3 6 11 15 18 21 23 24 26 27 27 27 27 27 26 25 24 24 24 25 25 25 25 25 25 25 25 25 26 27 30 30 28 25 24 23 21 20 20 22 23 22 22 22 21 21 21
2 4 3 1 2 3 4 5 5 6 6 4 2 4 4 5 6 6 5 5 8 7 4 2 2 2 2 1 1 4 6 7 7 6 3 3 3 2 1 3 4 2 4 7 10 16 21 23 24 24 23 23 23 23 23 23 22 22 23 24 24 25 25 24 23 22 22 22 24 25 27 29 28 25 24 23 21 20 21 23 24 24 24 24 23 23 23
2 3 2 1 3 2 3 4 6 10 6 1 5 4 5 5 8 9 8 7 8 7 3 2 2 3 1 2 3 3 5 8 10 9 7 5 3 3 1 1 2 2 3 3 4 11 17 20 23 23 22 23 24 24 23 22 21 21 21 21 22 25 25 23 21 19 18 19 21 23 26 28 26 23 23 23 23 21 21 23 25 25 25 24 24 24 24
2 3 2 1 3 3 3 4 9 9 3 3 4 1 5 4 8 10 9 7 6 5 2 2 2 3 4 6 8 7 7 10 10 9 8 6 4 4 4 2 1 2 3 3 3 6 10 13 18 20 21 23 24 24 22 20 19 20 21 21 22 24 23 20 18 17 17 19 21 23 25 25 24 23 23 24 25 23 23 25 27 26 25 24 24 24 24
2 2 3 1 3 3 2 6 8 4 2 2 2 3 1 3 5 7 8 7 6 4 3 3 2 8 11 11 10 9 10 11 10 8 8 8 7 6 5 3 1 1 3 2 1 2 2 3 8 12 17 20 22 23 22 21 20 22 23 22 21 21 19 18 17 17 18 19 22 23 24 23 22 22 22 24 25 24 24 27 28 27 26 25 24 24 23
2 2 3 1 2 3 4 6 3 1 2 2 2 0 3 4 3 3 5 6 6 3 2 1 8 13 13 11 11 11 11 11 11 10 10 11 11 10 8 7 4 3 1 1 3 5 7 7 5 4 6 11 15 19 20 19 21 24 24 22 20 18 18 18 18 18 18 19 20 19 17 16 16 16 17 21 24 25 27 28 29 29 28 26 24 22 20
3 3 2 3 5 4 4 4 0 1 1 2 2 3 4 4 4 2 1 5 5 4 3 7 14 16 14 13 13 12 12 11 12 13 12 13 13 12 11 9 7 6 4 4 7 10 11 11 11 10 7 5 7 10 11 12 15 16 16 15 15 15 16 16 17 17 17 16 14 11 10 11 12 12 13 16 20 24 26 25 24 24 23 22 20 18 16
2 4 4 4 5 5 4 3 1 2 3 3 3 4 4 5 4 3 1 2 4 4 7 13 17 16 14 14 13 12 12 12 13 13 14 14 14 13 12 10 9 9 9 9 10 13 13 13 12 11 8 7 8 7 7 9 12 12 11 10 12 12 12 12 13 12 10 9 8 7 7 9 9 10 10 10 11 14 14 12 11 11 12 12 12 11 11
1 1 2 3 3 4 3 2 2 3 3 3 4 4 4 4 4 3 2 1 2 6 12 17 18 16 15 14 12 10 11 12 12 13 13 13 14 14 12 11 11 11 12 13 14 15 16 14 13 12 10 10 12 12 10 9 9 9 8 8 9 8 7 8 9 9 7 7 7 7 8 9 8 8 7 7 7 7 6 5 5 6 7 7 7 7 7
1 0 3 3 3 4 4 3 2 2 3 4 5 4 4 4 4 3 3 2 4 9 16 18 18 16 14 13 11 10 10 11 11 12 12 13 13 12 11 11 11 11 12 14 15 16 17 16 15 14 14 14 15 14 13 11 10 10 9 9 9 9 9 9 9 8 8 8 7 8 9 10 10 10 9 7 6 6 6 5 6 6 6 6 7 6 6
2 3 4 2 1 3 3 3 2 1 3 4 5 5 5 4 3 4 4 5 8 14 17 16 16 16 13 11 11 11 10 10 10 11 11 12 12 12 10 10 10 10 11 13 14 15 16 16 14 14 15 16 16 15 14 13 12 11 10 9 8 9 8 8 8 8 7 8 8 9 10 10 10 10 9 8 8 8 8 8 7 7 7 7 8 7 6
1 2 3 1 1 2 2 1 0 1 3 4 4 5 5 5 6 7 8 9 10 14 14 12 12 13 11 10 10 10 9 9 10 11 11 11 11 11 11 11 10 9 10 11 12 13 14 14 13 12 12 14 14 13 14 12 10 10 10 10 9 9 8 8 8 8 8 8 9 10 10 10 10 10 10 10 9 9 9 8 8 7 7 6 6 5 5
1 3 6 7 3 1 3 2 2 2 2 3 4 6 7 7 8 9 12 13 12 12 12 10 10 11 11 10 9 8 8 8 9 10 10 10 11 12 12 12 11 11 10 11 11 10 10 11 11 10 10 11 11 11 11 10 8 8 8 8 9 9 8 7 7 7 7 8 8 9 9 9 8 8 9 9 8 7 7 6 6 6 5 5 5 5 4
3 5 12 12 5 2 4 4 3 3 2 2 3 5 7 8 8 8 11 14 13 13 13 10 8 9 11 10 8 7 8 8 9 10 10 10 11 13 14 14 13 12 12 12 11 11 10 9 9 8 7 7 7 7 7 7 6 5 5 6 7 6 5 5 5 5 6 6 7 7 7 7 6 6 5 6 7 6 6 5 4 4 3 3 4 4 3
1 8 14 11 5 5 6 5 4 4 3 2 2 5 7 8 8 8 9 11 13 14 13 10 7 7 8 7 6 7 8 8 8 10 10 10 12 14 14 13 13 13 13 12 12 11 10 10 9 7 6 4 3 3 3 3 3 3 4 4 3 2 2 3 4 3 4 5 5 5 5 5 4 4 4 4 5 5 4 4 3 2 2 2 3 3 3
5 12 13 9 8 9 9 7 6 6 4 3 3 6 7 8 8 8 9 11 12 12 11 9 9 8 7 7 6 6 7 8 8 9 10 10 12 13 13 13 12 13 13 12 12 11 11 10 10 9 7 5 3 2 1 1 1 1 1 1 1 1 0 1 1 3 3 3 3 2 3 3 3 3 3 2 2 3 3 3 3 3 4 5 5 5 5
10 16 14 11 11 12 10 8 8 7 6 5 6 8 8 8 8 9 10 11 11 10 9 9 10 9 7 7 6 6 6 7 8 9 10 10 10 10 10 10 10 11 11 11 11 11 11 11 10 9 8 7 6 4 3 2 2 1 1 1 2 2 2 2 2 2 3 2 2 1 2 2 1 1 1 2 3 3 3 4 4 5 5 5 4 3 2
14 18 15 13 12 11 9 8 9 9 8 7 8 9 10 9 9 10 11 12 11 10 10 9 9 8 7 6 6 5 5 5 6 7 8 8 7 7 7 6 7 7 8 9 9 10 11 11 10 9 9 8 8 6 5 4 4 3 3 2 2 2 2 2 2 2 2 2 2 1 1 1 1 1 1 2 3 3 3 3 3 3 3 3 2 1 1
18 18 11 7 10 13 11 10 11 11 10 8 9 10 11 10 10 10 11 11 10 10 10 9 7 7 7 7 6 5 4 4 4 5 5 4 4 4 4 4 4 4 5 6 7 7 8 9 9 9 8 8 8 7 6 5 4 3 3 3 2 3 2 2 2 2 2 3 2 1 1 1 2 2 3 4 4 4 4 3 3 3 2 2 2 1 0
21 17 8 5 10 15 14 13 13 12 11 10 10 10 9 10 10 10 10 10 9 8 8 8 6 6 5 5 5 5 4 4 4 3 2 1 0 1 2 2 3 3 3 3 4 4 5 6 7 8 7 7 7 7 6 5 5 4 4 4 3 3 1 1 1 2 3 4 4 4 4 4 5 5 5 5 5 5 5 4 4 4 4 3 3 1 1
20 14 8 9 13 15 14 14 14 13 12 11 11 9 8 8 9 11 11 9 8 8 8 7 6 6 5 5 4 4 4 4 4 3 2 1 1 2 2 2 3 3 3 3 3 3 3 3 4 5 5 5 5 6 5 5 6 6 6 6 6 5 4 3 3 4 4 5 5 6 6 6 7 7 7 6 6 6 6 6 6 6 6 6 5 4 2
18 12 11 13 15 15 14 15 15 14 13 12 11 11 9 8 9 12 12 10 10 10 10 9 9 9 8 7 6 5 4 3 2 2 1 1 1 2 3 4 5 5 5 5 5 5 5 4 3 3 3 4 4 4 4 4 4 5 5 6 6 6 6 6 6 6 6 6 6 6 6 7 7 8 7 7 7 7 7 7 8 8 8 8 8 7 6
19 15 15 17 17 15 15 16 16 16 15 13 11 11 10 7 8 11 11 10 10 10 9 8 9 9 9 8 7 5 4 4 3 2 2 2 1 1 2 3 4 4 5 5 6 6 7 7 7 6 6 6 6 6 5 4 4 3 3 4 4 5 5 6 7 7 7 7 7 6 5 6 6 7 7 8 8 8 9 10 10 10 10 10 10 9 9
23 21 21 21 20 19 19 19 17 16 16 14 12 11 10 8 9 10 10 9 9 8 7 6 7 6 6 5 3 3 2 2 2 1 1 1 1 1 1 1 2 3 3 4 5 6 7 8 9 10 10 10 10 9 8 8 7 6 6 6 6 6 6 7 7 8 8 8 8 7 6 6 6 7 8 8 9 9 10 11 12 12 12 11 10 10 10
21 20 20 20 17 16 18 20 19 18 17 15 13 12 12 10 10 10 9 8 7 6 5 4 3 2 1 0 1 1 2 2 2 1 1 1 0 0 0 0 1 2 3 3 4 5 6 7 8 9 10 10 11 11 12 12 11 11 10 10 9 9 10 10 10 9 9 9 9 9 9 8 8 8 8 9 9 10 11 12 13 13 13 13 12 11 11
19 18 18 16 14 13 15 17 18 18 18 17 15 14 13 12 10 9 8 7 5 3 2 1 0 2 3 4 4 5 5 5 5 4 4 4 3 3 3 3 3 4 4 5 5 6 6 7 8 8 9 10 10 11 12 13 13 14 14 14 14 14 14 14 13 13 12 12 12 12 12 11 10 10 10 10 9 10 11 12 13 13 13 13 12 11 11
20 19 18 17 16 15 15 15 16 17 17 16 15 15 13 12 10 8 7 5 3 1 1 2 4 5 5 5 5 6 6 5 5 6 6 7 7 7 7 7 7 8 8 8 8 9 9 9 9 10 10 10 10 10 11 12 13 15 16 17 17 17 17 17 18 17 16 15 15 15 14 13 13 12 12 12 12 12 12 12 13 13 13 13 13 12 12
20 18 17 17 17 17 17 16 15 16 15 15 14 14 13 11 9 7 4 3 1 2 3 5 6 7 7 7 6 6 6 7 7 8 9 10 10 10 11 11 12 12 12 11 11 11 11 11 11 11 11 10 10 10 10 11 12 13 14 14 15 16 16 17 18 18 18 18 17 17 17 17 16 16 15 14 14 14 14 14 15 15 15 15 15 14 13
19 17 16 17 18 18 17 16 16 16 15 15 15 13 12 10 8 6 4 2 1 2 4 6 7 8 8 8 8 8 9 9 10 10 11 11 12 12 12 12 12 12 12 12 12 12 12 11 11 11 11 10 10 10 10 11 12 12 12 13 13 14 14 15 16 16 16 17 17 18 19 20 20 20 18 17 16 16 16 16 17 17 17 18 17 16 16
19 17 15 16 18 19 18 17 18 17 16 15 15 14 12 10 8 6 4 3 2 3 5 7 8 8 8 8 8 9 9 9 9 9 10 10 10 10 10 10 9 9 9 9 10 10 10 11 11 11 12 12 12 11 11 12 12 12 12 13 14 14 15 15 16 16 17 17 17 18 19 19 19 19 19 19 18 17 16 16 16 17 18 18 18 18 18
19 17 16 17 19 20 19 19 19 18 16 14 13 13 12 9 7 5 4 4 4 5 7 8 9 9 8 8 7 7 6 6 6 6 6 6 7 7 8 7 6 6 7 7 7 7 7 9 10 11 11 12 12 12 12 12 13 13 13 13 14 14 15 16 16 17 17 18 18 19 19 18 18 18 18 18 18 17 17 18 18 19 20 20 20 19 19
20 18 17 18 20 21 21 21 20 19 17 14 12 11 10 8 6 6 5 5 6 7 8 9 9 8 7 6 5 4 4 3 3 3 3 4 5 6 6 6 5 4 5 6 6 6 7 8 9 9 10 11 11 12 13 13 14 14 14 14 14 15 15 16 16 17 17 17 18 19 19 19 19 19 19 19 20 21 22 22 22 21 22 22 21 19 19
21 20 19 19 21 22 22 22 21 19 17 14 12 10 9 8 7 7 7 7 8 8 9 8 7 5 4 3 3 3 3 3 3 3 4 5 6 6 7 7 6 6 6 6 7 8 8 9 10 10 10 10 10 11 12 13 14 15 16 16 17 17 17 18 18 18 18 18 18 18 18 18 18 18 18 19 21 22 23 24 24 22 21 21 21 21 20
22 21 20 20 21 22 22 21 20 18 15 13 10 9 8 7 7 7 7 7 7 7 5 4 2 1 1 1 2 2 3 4 4 5 6 6 7 8 9 8 8 9 9 9 9 9 10 10 11 12 12 12 12 12 12 13 14 15 16 17 18 18 19 20 20 20 21 21 20 20 19 18 18 17 17 17 18 18 20 22 23 22 22 23 23 22 21
22 21 21 21 22 22 21 19 17 15 12 10 8 7 6 5 6 7 7 7 6 4 3 2 1 1 0 1 2 3 4 5 6 7 8 8 8 9 10 11 11 12 12 12 11 11 11 12 13 14 14 15 15 15 15 15 15 15 16 17 17 18 19 20 20 21 22 23 23 23 23 22 22 21 20 19 18 17 17 18 19 20 21 22 23 24 23
22 21 20 21 21 21 19 16 13 11 8 7 5 4 4 4 5 6 6 5 5 4 3 2 1 1 2 3 4 5 6 7 8 9 9 10 10 10 11 12 13 13 14 14 14 14 14 14 15 16 17 17 17 17 17 17 17 17 17 17 17 18 19 20 21 21 22 23 23 24 24 24 24 23 23 23 22 21 20 18 17 18 20 22 24 25 24
22 21 21 20 19 17 14 12 10 8 6 5 5 4 4 4 5 5 4 3 3 3 2 1 1 2 3 4 5 6 7 8 9 10 11 11 12 12 12 13 13 14 15 15 16 16 16 17 17 17 18 18 18 18 18 17 17 17 17 16 17 17 18 19 20 21 22 23 23 24 24 24 23 23 24 24 23 22 21 20 19 20 22 24 27 27 24
23 23 22 19 17 15 13 11 9 8 6 5 5 5 5 5 4 4 4 4 3 3 2 1 1 1 2 3 4 6 6 7 8 9 9 10 11 12 13 14 14 15 15 16 16 16 16 17 17 17 17 17 17 17 17 16 16 16 16 16 17 17 16 17 17 18 19 20 21 22 23 23 22 22 22 22 21 20 19 19 19 19 20 24 28 28 25
23 23 21 18 16 16 14 11 8 7 6 6 6 6 5 5 6 6 6 5 4 4 3 2 1 1 2 2 3 4 4 5 6 7 7 8 9 10 11 12 13 14 13 13 13 14 14 14 15 15 16 16 15 15 15 15 15 15 14 14 15 15 15 15 15 15 15 15 16 17 18 19 18 18 18 17 16 14 13 13 14 14 15 19 22 21 19
23 22 20 18 17 16 14 11 8 8 8 8 7 6 6 7 8 8 6 5 5 5 4 3 2 2 3 4 5 5 6 7 7 8 8 9 9 9 9 10 10 10 11 11 11 12 12 12 12 13 13 13 12 12 11 11 11 11 11 11 11 12 12 12 12 12 11 11 11 11 11 11 11 11 10 9 8 7 6 6 7 9 10 12 13 15 18
23 22 20 19 17 15 13 10 9 10 10 10 8 7 8 9 10 9 7 6 6 5 4 4 4 4 5 5 5 6 7 7 8 9 9 10 10 9 9 10 10 10 10 10 10 10 10 10 10 10 9 9 8 8 7 6 6 7 7 8 8 8 8 9 9 9 8 7 6 5 4 3 3 2 1 1 2 3 4 4 2 2 6 10 14 17 17
23 22 20 18 16 14 11 9 9 9 10 10 9 9 10 11 11 9 8 7 6 5 5 5 6 6 5 5 5 6 6 7 8 9 10 10 10 11 11 11 11 10 9 9 8 8 8 7 6 6 5 5 5 5 5 5 6 6 7 8 8 8 8 10 11 11 9 7 4 3 3 3 4 4 4 3 3 4 4 3 3 6 9 10 10 10 9
22 20 18 17 15 14 13 11 10 10 10 11 10 11 12 13 13 11 9 8 7 6 5 6 6 6 5 5 5 6 6 7 8 9 9 10 10 11 12 12 11 10 9 8 7 6 5 5 5 5 6 6 6 6 7 7 8 9 10 11 11 11 11 12 14 13 12 9 6 4 3 4 4 3 3 4 5 6 5 4 5 6 6 6 6 6 5
Wind_Direction
11 7 1 3 42 82 59 37 20 14 24 40 58 52 318 352 141 231 289 21 53 339 331 356 7 41 63 68 84 129 163 170 175 176 176 176 172 171 177 183 188 192 194 196 200 205 208 211 215 217 218 222 222 222 225 227 227 226 224 223 224 227 231 235 235 234 231 229 227 227 229 230 231 232 233 233 233 231 231 234 237 236 233 232 234 233 233
20 359 33 74 86 63 49 41 27 26 40 46 50 30 352 28 124 198 340 74 63 11 343 21 52 82 84 84 91 117 156 171 177 177 177 184 187 185 186 187 189 194 197 197 197 202 208 212 217 218 221 225 225 225 227 228 228 227 225 226 227 228 230 232 234 235 233 230 228 228 230 231 231 232 231 230 230 231 233 236 237 237 236 236 237 235 233
347 316 325 76 85 93 65 41 26 27 41 43 39 26 9 19 38 354 39 74 56 27 57 67 72 82 79 77 77 84 126 170 188 189 185 190 197 199 201 204 204 206 211 209 204 206 212 216 218 221 226 229 227 227 227 227 228 226 224 225 226 229 232 231 232 234 233 230 228 228 230 230 229 230 230 229 230 231 234 235 235 237 239 240 240 238 237
286 305 323 341 24 73 50 31 19 13 27 37 31 32 33 20 337 339 37 73 23 5 70 78 75 75 74 71 68 68 85 138 177 192 196 198 203 202 203 210 215 216 219 219 215 214 217 219 220 221 225 228 230 231 229 227 228 226 223 224 224 227 232 232 231 232 233 232 230 228 228 227 225 226 226 227 229 232 234 235 235 236 240 242 242 241 240
219 277 314 332 25 37 5 354 0 10 42 63 40 36 31 14 349 346 57 96 229 43 86 92 87 80 76 73 72 75 80 94 135 180 199 207 213 210 205 208 214 216 218 220 219 219 222 224 227 229 231 234 236 236 233 229 228 226 224 226 228 228 230 232 231 231 235 237 233 227 225 223 221 219 221 224 227 230 233 234 235 238 242 245 245 244 242
209 266 312 335 27 31 268 259 259 156 108 100 86 49 5 1 24 69 94 105 113 101 96 103 97 84 81 82 81 84 85 83 88 103 152 226 231 223 215 215 216 218 221 223 224 225 225 227 230 233 236 239 240 238 234 230 229 229 227 230 235 235 232 233 232 232 234 236 235 230 223 219 218 217 219 223 226 229 231 232 235 239 242 245 246 245 244
180 269 15 249 250 240 232 263 330 127 122 110 100 75 9 0 20 48 77 88 101 111 116 119 111 104 102 100 92 84 80 78 76 77 79 249 245 226 216 222 226 226 227 228 228 228 227 227 227 226 228 234 237 235 232 231 233 232 231 234 240 240 236 234 234 234 233 232 234 235 228 220 218 217 218 222 226 231 233 233 234 236 236 238 240 241 244
152 81 99 196 237 257 268 4 43 95 91 78 78 49 359 337 350 38 95 97 93 97 102 120 125 123 114 98 80 70 71 73 72 75 78 73 244 220 217 228 231 230 230 230 227 227 227 225 224 223 225 229 232 233 235 238 239 236 233 234 238 239 239 237 234 234 235 232 236 242 237 227 222 219 217 219 224 233 238 237 236 236 234 235 235 237 241
142 118 123 254 292 299 311 14 51 104 346 307 135 101 290 266 260 244 134 115 98 76 82 127 141 133 106 79 59 51 57 62 62 65 69 71 81 105 202 234 235 232 233 234 231 229 230 227 226 226 225 226 229 234 238 239 238 237 236 235 235 237 241 242 239 238 239 238 241 246 244 235 228 225 225 225 229 237 242 241 239 237 235 235 235 236 238
98 95 67 11 350 257 241 260 268 302 299 267 197 137 286 262 237 234 184 129 127 140 152 165 184 169 63 53 34 38 48 53 57 62 57 63 81 96 150 265 272 246 235 237 237 234 233 231 230 228 226 226 228 230 231 231 231 234 238 236 235 237 241 245 245 243 242 242 242 245 247 242 235 233 235 236 235 238 240 241 242 242 239 235 232 232 233
92 106 108 146 197 235 242 240 270 328 325 272 154 76 320 262 207 205 204 157 150 164 191 273 316 27 27 299 308 32 46 57 62 63 61 65 85 99 273 309 347 335 248 242 242 237 234 232 230 227 222 221 224 225 227 232 233 235 239 239 237 238 241 243 243 241 242 242 240 244 250 248 242 240 242 241 238 239 241 240 242 245 243 237 232 230 229
115 109 111 194 214 246 238 235 292 324 324 143 95 54 291 236 184 189 197 176 163 168 188 315 14 59 2 230 164 97 70 70 68 64 63 65 84 109 128 300 347 327 272 272 249 232 231 232 232 227 220 219 224 228 231 236 237 236 235 234 233 237 240 241 240 240 242 244 242 245 249 248 244 241 243 243 243 246 248 247 246 245 240 234 231 230 229
106 108 125 246 258 243 237 282 311 323 339 99 96 208 240 185 160 179 188 180 179 182 194 327 20 89 116 134 131 112 87 80 73 67 68 70 84 108 122 150 186 221 244 270 254 222 222 229 232 228 224 224 228 231 233 235 234 230 228 229 235 240 241 240 241 243 244 242 240 240 242 245 247 247 248 250 251 250 247 244 241 237 231 228 228 228 227
93 114 119 322 278 243 280 315 319 331 114 147 197 221 240 75 120 165 179 182 187 201 252 301 103 120 122 126 123 108 95 92 88 82 79 77 80 86 95 109 128 226 237 234 218 181 174 212 224 222 221 223 226 231 235 235 232 230 229 232 238 241 238 236 238 242 243 241 239 239 240 244 248 250 249 249 248 244 239 235 232 229 228 227 226 224 223
115 81 73 75 229 247 333 338 325 129 142 224 246 43 37 34 60 138 183 197 194 201 254 179 134 133 129 124 117 109 106 104 96 86 75 71 72 69 68 69 58 27 7 107 87 74 69 69 82 136 192 210 218 225 227 226 227 230 231 231 234 235 235 236 238 238 238 236 235 237 239 238 238 240 241 240 238 234 232 231 229 226 222 220 219 219 222
119 117 157 200 221 262 341 356 210 178 336 321 341 17 15 8 14 36 209 220 214 214 202 153 142 138 130 122 117 112 108 99 88 81 75 72 70 66 66 71 67 57 58 69 70 69 67 67 73 81 89 118 175 202 205 197 202 209 212 214 219 220 222 227 230 229 226 223 221 221 218 214 217 226 234 235 229 224 222 220 219 214 208 207 208 211 216
162 184 213 244 266 293 336 3 12 8 351 330 324 328 342 358 7 13 4 231 215 201 179 157 145 138 131 123 117 111 103 91 81 78 76 70 65 61 63 71 74 75 79 82 80 77 72 66 69 75 80 97 124 143 151 158 170 177 180 187 199 204 206 209 212 214 207 193 187 181 173 179 196 212 221 220 213 207 203 199 202 202 198 197 200 202 207
259 239 264 301 317 323 337 348 358 10 358 334 335 330 330 348 1 7 21 78 177 176 170 159 146 139 135 126 119 113 102 88 79 76 70 64 61 60 62 68 70 74 81 85 85 84 77 70 71 79 90 103 111 114 117 124 138 149 153 160 174 182 177 169 173 176 160 142 140 137 138 148 157 165 175 181 181 182 179 171 177 189 190 189 188 187 188
96 283 295 319 339 330 337 350 348 2 14 2 3 1 349 351 8 30 58 99 153 165 166 159 148 140 134 125 121 116 100 86 79 72 62 57 56 59 65 68 66 68 77 82 85 85 81 76 77 85 95 101 103 107 111 111 112 121 131 137 141 140 136 133 136 135 126 124 131 135 138 143 146 147 150 155 160 164 159 150 152 159 162 158 150 144 142
140 226 262 296 348 307 324 359 352 4 40 29 24 27 23 32 65 78 86 117 152 162 162 157 148 140 132 125 125 115 98 87 78 67 59 52 51 59 69 72 68 67 71 77 82 85 84 84 84 87 92 95 94 96 98 100 103 110 117 123 124 120 116 113 110 111 115 120 127 132 135 137 140 142 142 140 139 137 132 128 127 125 122 121 119 117 116
31 262 250 218 43 302 292 341 66 67 54 43 46 53 57 77 96 101 107 121 147 159 156 150 146 141 132 127 123 109 94 87 77 65 58 56 59 67 74 75 74 73 71 72 76 80 84 89 92 93 93 94 94 93 92 93 97 102 106 110 110 108 107 108 107 110 114 116 119 123 126 128 131 131 128 126 126 124 121 118 113 108 107 108 109 113 120
287 238 189 170 156 264 234 185 120 110 87 54 56 64 74 92 102 107 116 122 135 148 144 137 141 138 126 118 112 97 86 85 75 60 55 61 68 70 69 70 73 73 73 72 71 72 78 87 95 100 101 100 101 101 102 104 106 103 106 113 116 114 115 117 117 115 114 116 118 119 119 118 117 121 124 125 124 122 120 121 119 118 123 125 125 130 138
240 197 173 168 158 153 172 152 111 117 119 74 63 69 81 98 105 106 117 125 133 140 137 130 134 129 114 109 107 95 89 87 73 59 59 69 74 71 67 67 68 69 71 72 70 70 73 79 87 98 105 109 111 112 117 123 126 125 125 132 134 130 129 134 134 127 125 126 123 120 119 113 104 102 115 129 134 135 133 131 130 134 142 149 155 161 171
117 153 162 167 146 125 142 135 113 115 108 80 84 79 82 99 107 106 115 125 132 139 136 129 131 127 110 105 108 100 94 88 72 62 70 80 79 75 71 68 66 67 69 70 69 69 70 71 76 82 91 102 112 122 130 138 145 145 146 158 170 158 142 149 141 123 129 140 136 128 124 119 112 105 108 124 141 149 154 159 167 183 202 214 224 237 249
127 149 157 157 138 132 134 125 113 106 90 80 94 89 88 99 104 109 122 128 131 136 135 127 127 127 113 103 103 99 93 84 70 63 71 80 79 74 69 65 62 62 62 64 67 68 66 65 66 69 72 77 75 76 108 135 150 165 171 208 255 329 69 128 85 69 90 120 127 114 97 94 102 108 112 133 166 184 201 222 240 255 264 268 271 274 277
150 153 146 134 132 133 130 124 118 108 97 99 103 101 102 105 105 111 123 128 128 128 125 122 121 119 113 110 110 108 98 87 79 76 79 83 83 76 69 66 65 62 59 60 62 63 63 64 63 62 63 62 55 48 49 53 56 52 40 15 347 343 343 347 2 27 58 71 59 48 68 75 72 88 131 196 219 230 243 257 269 275 276 275 272 271 273
161 158 144 131 137 142 140 138 134 124 117 116 111 110 117 121 118 117 120 122 124 123 121 120 117 112 115 123 122 118 113 104 98 94 87 83 79 71 65 68 72 71 65 60 58 57 57 59 59 56 55 52 49 46 46 48 52 52 46 34 15 2 12 32 40 34 32 24 8 1 25 34 2 339 269 248 256 270 272 269 266 263 255 243 231 228 231
166 163 150 136 151 154 147 144 144 137 132 129 119 116 123 130 131 129 125 122 125 126 124 124 119 114 119 128 130 135 137 129 121 114 100 87 74 62 58 60 67 71 65 59 57 55 51 51 51 48 45 44 43 44 44 44 46 47 38 26 12 3 8 26 39 25 2 349 346 350 348 327 307 295 283 277 281 283 278 264 238 224 225 234 243 254 292
170 170 161 137 149 150 144 143 149 148 143 140 131 123 127 134 133 130 127 124 126 127 122 121 124 124 126 133 142 155 167 167 163 160 153 152 234 24 39 34 31 33 32 33 40 42 41 42 42 38 34 33 34 37 38 34 28 19 8 1 357 353 346 313 305 318 326 330 328 318 306 299 298 296 291 282 275 273 269 253 232 226 238 253 258 265 329
172 173 162 142 147 151 147 146 151 151 147 147 142 133 136 140 129 119 115 115 117 115 108 109 116 122 128 137 141 151 169 178 179 184 196 221 267 290 306 313 317 322 327 328 333 337 342 0 21 24 19 19 23 25 25 22 20 13 5 358 352 349 342 327 315 314 314 312 309 302 293 289 290 293 292 280 264 258 256 248 238 238 248 256 260 265 271
167 166 160 152 153 155 151 148 150 151 149 149 146 140 140 139 127 119 115 111 110 108 105 106 109 108 109 111 107 106 119 130 121 107 90 63 352 319 310 304 298 294 291 289 287 286 284 283 289 306 317 325 334 344 352 359 6 9 7 1 356 350 342 331 323 318 312 305 301 294 288 283 280 282 284 277 260 248 245 244 245 248 252 256 261 265 264
159 152 155 157 158 159 157 154 154 153 153 155 154 147 143 138 130 127 122 117 115 113 110 109 106 101 100 102 101 99 102 100 91 79 67 54 35 4 336 317 305 300 296 290 285 280 274 269 266 268 272 277 282 288 295 301 305 318 329 331 333 334 329 320 315 310 306 303 300 293 287 282 276 274 275 272 262 251 244 242 245 247 246 247 252 254 252
162 157 161 164 164 164 164 163 161 160 160 163 160 153 148 145 139 136 133 128 125 122 117 109 103 101 102 102 101 96 93 90 92 96 85 79 80 76 53 335 311 311 309 303 299 292 285 280 278 275 271 268 265 266 269 273 276 279 283 287 294 300 301 302 301 298 296 294 292 288 280 271 266 267 271 271 267 260 253 249 249 250 249 249 251 249 246
183 181 182 181 180 180 178 174 170 168 166 165 163 157 152 148 143 139 139 137 132 127 121 111 104 110 118 97 301 301 303 297 293 298 304 282 252 230 217 283 301 305 301 297 295 292 288 287 288 289 288 283 275 267 263 263 265 268 271 274 277 281 286 288 288 288 287 283 281 282 281 275 270 270 275 275 270 264 258 255 254 255 256 256 256 253 247
201 202 197 193 196 201 195 187 182 178 173 169 164 159 154 153 151 148 146 146 144 139 136 141 261 274 283 289 289 289 291 291 290 291 288 279 275 271 263 261 269 275 279 282 280 279 281 282 283 288 294 295 291 283 275 269 267 269 272 274 275 276 278 279 280 283 284 280 274 271 270 270 272 275 277 278 276 268 261 257 254 253 254 256 255 253 247
205 204 199 197 200 202 200 196 191 186 180 174 168 162 158 158 157 155 152 149 139 111 26 338 325 318 315 311 305 301 298 295 292 291 288 286 286 284 281 280 279 278 282 286 284 281 282 281 281 282 284 284 286 285 280 274 272 270 270 272 273 273 273 273 273 275 276 277 274 270 266 265 266 266 268 271 273 271 267 263 258 255 254 253 252 251 247
206 207 204 202 201 197 196 194 191 187 184 179 174 172 171 169 165 162 158 147 94 5 339 329 324 320 319 318 317 315 311 307 304 302 300 299 298 296 293 291 289 286 287 288 288 288 289 287 286 285 282 278 276 275 273 272 270 268 267 268 269 268 267 267 268 268 267 268 267 267 265 264 263 262 263 265 268 268 268 265 262 260 259 257 255 254 254
203 205 207 204 196 191 189 187 186 187 187 182 178 178 179 179 177 177 179 188 269 308 312 313 313 312 312 313 313 312 312 311 311 310 310 310 310 308 306 303 299 295 291 289 288 289 291 292 292 291 289 287 282 277 273 271 270 270 271 271 271 270 270 269 269 269 268 265 262 260 260 261 261 260 260 261 263 265 265 264 263 262 262 260 259 258 259
199 199 201 199 192 188 187 184 182 187 191 190 185 181 180 182 186 188 196 217 255 288 301 304 305 305 306 307 308 309 311 314 316 317 318 320 321 322 323 325 323 319 313 308 303 298 295 294 295 294 294 294 294 292 289 286 282 279 277 275 274 275 276 276 277 277 276 275 273 270 267 265 262 259 256 257 259 261 260 261 264 265 264 263 261 260 259
197 194 194 193 191 189 189 186 184 184 189 194 194 190 186 188 194 200 215 244 270 287 295 297 298 298 297 299 305 313 319 324 327 327 330 334 337 338 342 347 343 332 325 324 322 314 304 300 300 299 297 295 294 293 291 290 288 285 282 278 276 276 276 277 278 279 279 280 280 280 279 277 273 266 260 258 257 257 259 264 270 270 267 264 261 259 257
197 195 193 192 192 191 190 188 185 183 183 187 192 193 193 198 210 223 241 259 272 282 289 292 292 291 292 297 310 325 337 344 343 338 341 348 351 353 357 1 357 341 330 328 326 318 310 304 303 302 300 298 294 290 286 282 280 278 277 275 275 275 275 276 277 278 278 279 280 280 281 282 280 277 272 267 262 259 260 265 270 270 266 262 259 258 256
197 196 193 192 191 190 189 187 185 182 181 183 188 193 199 209 224 239 253 266 276 283 287 288 288 291 296 307 326 345 357 357 350 345 345 349 348 347 349 353 352 345 338 331 324 318 314 310 308 307 306 304 300 295 290 286 281 278 276 274 273 272 271 272 273 273 274 275 276 277 278 279 279 278 277 274 271 268 266 265 267 266 263 258 257 255 250
196 196 194 192 189 187 186 185 184 184 183 186 194 205 216 229 244 260 272 281 287 289 287 284 288 307 313 313 338 357 354 344 340 338 338 340 339 333 332 333 333 331 329 326 320 314 310 308 308 309 310 310 307 302 296 291 288 284 282 280 277 275 273 272 271 270 270 271 271 271 272 272 273 274 275 275 275 274 272 269 268 266 261 257 254 250 244
194 194 192 190 188 186 185 185 188 191 195 200 207 218 233 251 269 281 286 288 286 279 264 248 218 160 266 319 335 338 332 327 327 326 326 329 328 323 321 322 322 321 321 320 317 313 309 307 306 307 308 309 309 307 304 300 296 292 288 285 282 279 276 274 272 271 270 270 269 269 269 269 269 270 270 270 270 270 269 270 273 271 263 254 247 242 242
190 189 189 188 187 187 188 190 194 198 202 201 201 214 241 263 279 284 281 273 263 250 238 231 226 284 319 327 331 331 329 327 325 322 322 322 321 316 314 314 313 312 312 311 309 308 307 306 305 306 308 308 308 308 307 305 302 299 297 294 290 285 281 278 275 273 271 270 269 269 270 269 269 269 268 267 267 266 265 266 270 269 261 251 245 246 252
184 183 185 185 184 184 184 184 184 185 185 182 186 207 232 250 262 260 246 226 214 210 213 231 266 299 321 327 327 327 327 325 322 320 318 317 315 313 311 309 307 305 304 304 303 301 301 301 302 303 306 307 308 308 307 306 305 304 302 301 298 294 290 285 280 276 273 272 271 270 270 269 268 268 268 268 268 268 267 264 263 261 258 254 252 252 255
181 181 181 180 178 174 171 169 169 169 173 182 197 213 224 229 220 200 181 169 171 184 192 204 249 306 327 323 321 323 322 318 317 319 320 318 316 313 309 307 304 302 300 300 300 299 300 300 301 303 305 306 308 309 308 308 308 308 307 306 305 303 300 296 291 284 278 275 273 273 273 272 270 269 269 271 271 270 268 267 265 261 258 257 257 256 252
183 181 178 176 175 173 169 166 165 168 176 188 200 207 208 198 182 169 158 148 144 140 131 122 108 34 359 347 347 352 351 343 337 337 335 329 323 317 312 308 305 303 303 303 304 305 305 305 305 306 307 308 309 309 309 310 311 311 311 311 311 310 309 308 304 298 292 287 282 278 277 276 273 272 271 270 269 267 267 270 270 267 263 264 263 254 237
185 182 178 177 178 177 173 169 169 174 183 191 195 192 185 177 170 164 155 143 134 128 121 117 107 76 55 44 34 26 19 12 6 1 357 352 347 341 337 332 327 324 322 321 320 318 317 314 311 310 310 310 310 311 311 311 311 312 314 316 317 318 318 317 314 308 303 297 290 285 283 281 279 273 266 263 266 271 279 288 287 276 265 256 239 213 196
185 183 182 183 185 185 183 180 177 182 190 194 191 181 173 167 162 157 152 145 141 138 136 126 108 88 73 60 47 35 27 22 17 13 10 8 8 8 8 5 1 355 349 344 338 333 329 325 322 320 320 320 321 322 321 319 321 325 327 326 325 325 329 335 338 335 326 317 311 310 317 323 321 308 289 331 6 16 27 29 26 196 200 201 196 191 191
189 190 192 193 194 194 191 183 179 186 194 194 184 173 166 159 153 150 150 149 145 142 136 124 109 95 85 74 61 49 39 31 27 25 22 20 21 24 24 23 19 13 7 1 356 352 350 351 355 359 4 8 9 10 11 10 7 4 0 359 0 4 9 14 17 17 13 7 8 18 20 10 4 6 15 33 59 81 87 93 139 173 183 189 191 191 192
196 197 197 196 195 192 189 184 184 191 195 190 178 169 163 157 153 152 151 145 138 134 131 125 116 106 96 84 71 60 49 40 35 33 29 26 28 30 31 30 30 27 22 16 14 14 18 29 40 42 42 41 42 43 43 39 35 33 30 27 24 21 20 22 26 31 33 32 27 16 359 358 11 36 81 111 124 130 130 128 137 148 157 164 167 166 165